Content
SEND FEEDBACK

Daily
Averages
Monthly
Summary
United States of America

OREGON, MISSOURI


Home > North America > United States > Missouri
Elevation: 1090 feet     Latitude: 39 59N     Longitude: 095 09W

WEATHER
 
SELECT A DAY
Number of Records: 192,975;   Date Range: 1/1/95 - 8/28/14
 
SHARE

PRINT THIS DATA

[ ← Previous Day ]
WEATHER ALMANAC - JANUARY 31, 2013
[ Next Day → ]
[ °C ]   °F
Weather ElementAverageHighLow
Temperature12.9 °F19.9 °F (1:53 am)1.9 °F (11:53 pm)
Dewpoint3.3 °F14 °F (1:53 am)-5.1 °F (11:53 pm)
Humidity65.7 %78 % (1:53 am)59 % (2:53 pm)
Barometer30.28 in30.54 in (10:53 pm)30.00 in (1:53 am)
Wind Speed12.3 mph23 mph (2:29 pm)
Wind Gust33.4 mph (12:53 pm)
Weather ElementAverage
Visibility10 mi
Wind DirectionNW (317.3 °)

Weather ElementTotal
Precipitation---
Heating Degree Days54.1 (Base 65)
Averaged from 22 records on January 31, 2013
WEATHER CONDITIONS BREAKOUT
WIND DIRECTION BREAKOUT
WEATHER BY HOUR - JANUARY 31, 2013
[ °C ]   °F
Local TimeTemperatureDewpointHumidityBarometerVisibilityWind DirectionWind SpeedGust SpeedPrecipitationEventsConditions
1:53 AM19.9 °F14.0 °F78 %30.00 in10.0 miNW (320°)3.5 mphOvercast
2:53 AM19.9 °F14.0 °F78 %30.01 in10.0 miNW (310°)6.9 mphOvercast
3:53 AM19.9 °F12.9 °F74 %30.00 in10.0 miNW (310°)4.6 mphOvercast
5:53 AM19.0 °F10.9 °F71 %30.04 in10.0 miNW (320°)11.5 mphOvercast
6:53 AM18.0 °F10.0 °F71 %30.08 in10.0 miNNW (330°)16.1 mphOvercast
7:53 AM15.1 °F5.0 °F64 %30.12 in10.0 miNNW (330°)12.7 mphMostly Cloudy
8:53 AM14.0 °F3.0 °F62 %30.16 in10.0 miNNW (330°)11.5 mphOvercast
9:53 AM15.1 °F3.9 °F61 %30.20 in10.0 miNW (310°)12.7 mphOvercast
10:53 AM15.1 °F3.9 °F61 %30.23 in10.0 miNW (320°)17.3 mphOvercast
11:53 AM15.1 °F3.9 °F61 %30.27 in10.0 miNW (310°)20.7 mph26.5 mphOvercast
12:53 PM15.1 °F3.9 °F61 %30.30 in10.0 miNNW (340°)21.9 mph33.4 mphOvercast
2:29 PM12.2 °F1.4 °F62 %30.29 in9.0 miNNW (330°)23.0 mph31.1 mphScattered Clouds
2:53 PM14.0 °F1.9 °F59 %30.34 in10.0 miNNW (330°)19.6 mphScattered Clouds
3:53 PM12.9 °F1.0 °F59 %30.36 in10.0 miNNW (330°)18.4 mph27.6 mphScattered Clouds
4:53 PM12.0 °F1.0 °F61 %30.39 in10.0 miNNW (330°)15.0 mph21.9 mphMostly Cloudy
5:53 PM10.0 °F-0.9 °F61 %30.42 in10.0 miNW (320°)13.8 mphClear
6:53 PM9.0 °F-2.0 °F61 %30.43 in10.0 miNW (320°)11.5 mphClear
7:53 PM7.0 °F-2.0 °F67 %30.45 in10.0 miNNW (340°)6.9 mphClear
8:53 PM7.0 °F-2.9 °F64 %30.48 in10.0 miNW (320°)5.8 mphClear
9:53 PM6.1 °F-2.9 °F67 %30.51 in10.0 miWest (280°)5.8 mphClear
10:53 PM5.0 °F-2.9 °F70 %30.54 in10.0 miWSW (250°)6.9 mphClear
11:53 PM1.9 °F-5.1 °F72 %30.53 in10.0 miWNW (300°)4.6 mphClear
Hourly data recorded from KSTJ, located miles away from Oregon, Missouri







STORIES FROM OUR PARTNERS